Simultaneous Nadir Overpasses (SNOs) Predictions

Prediction of SNOs between AQUA and GOES-15 Satellite Orbit:

Table of predicted SNOs for the next 14.0 days since TLE Epoch: 10/10/2020
Index Date Time (AQUA) AQUA Lat,Lon GOES-15 Lat,Lon Distance(km) Time Diff (sec)
1 10/11/2020 09:55:01 -0.89,-125.00 -0.14,-128.42 390.32 80
2 10/11/2020 22:16:24 -0.26,-130.18 0.13,-128.41 201.79 80
3 10/13/2020 22:04:12 0.38,-127.22 0.14,-128.39 132.58 80
4 10/14/2020 10:25:26 0.74,-132.37 -0.13,-128.39 452.93 80
5 10/15/2020 21:52:00 1.04,-124.27 0.14,-128.37 466.70 80
6 10/16/2020 10:13:15 0.10,-129.42 -0.14,-128.37 118.88 80
7 10/18/2020 10:01:03 -0.56,-126.46 -0.13,-128.35 214.67 80
8 10/18/2020 22:22:25 -0.58,-131.65 0.13,-128.33 377.19 80
9 10/20/2020 22:10:12 0.02,-128.68 0.13,-128.30 44.65 80
10 10/22/2020 21:58:00 0.68,-125.73 0.14,-128.26 287.55 80
11 10/23/2020 10:19:15 0.46,-130.88 -0.12,-128.25 299.03 80
